Weather History for Lamar, CO

Change the Weather History Date:

Thursday, October 28, 2010

  Actual Average Record
Temperature  
Mean Temperature 41 °F 48 °F  
Max Temperature 66 °F 65 °F 86 °F (1933)
Min Temperature 16 °F 30 °F 16 °F (2010)
Degree Days  
Heating Degree Days 24 17  
Month to date heating degree days 257 330  
Since 1 July heating degree days 268 413  
Cooling Degree Days 0 0  
Month to date cooling degree days 4 8  
Year to date cooling degree days 1451 1120  
Moisture  
Dew Point 10 °F    
Average Humidity 31    
Maximum Humidity 51    
Minimum Humidity 11    
Precipitation  
Precipitation 0.00 in 0.02 in 0.60 in (2000)
Month to date precipitation 0.02 0.74  
Year to date precipitation 11.43 14.36  
Snow  
Snow 0.00 in - - ()
Month to date snowfall 0.0  
Snow Depth 0.00 in    
Sea Level Pressure  
Sea Level Pressure 30.43 in    
Wind  
Wind Speed 9 mph (South)    
Max Wind Speed 22 mph    
Max Gust Speed 25 mph    
Visibility 10 miles    
Events      
T = Trace of Precipitation, MM = Missing Value Source: NWS Daily Summary

Daily Weather History Graph

Daily Weather History Graph

Search for Another Location

Airport:

Trip Planner

Search our weather history database for the weather conditions in past years. The results will help you decide how hot, cold, wet, or windy it might be!

Date:

Astronomy

Oct. 28, 2010 Rise Set
Actual Time 7:12 AM MDT 5:56 PM MDT
Civil Twilight 6:45 AM MDT 6:23 PM MDT
Nautical Twilight 6:14 AM MDT 6:54 PM MDT
Astronomical Twilight 5:43 AM MDT 7:24 PM MDT
Moon 10:31 PM MDT (10/28) 12:31 PM MDT (10/28)
Length of Visible Light 11h 37m
Length of Day
10h 43m
Waning Gibbous, 69% of the Moon is Illuminated
Oct 28
Waning Gibbous
Oct 30
Last Quarter
Nov 5
New
Nov 13
First Quarter
Nov 21
Full

Hourly Weather History & Observations

Time (MDT) Temp. Windchill Dew Point Humidity Pressure Visibility Wind Dir Wind Speed Gust Speed Precip Events Conditions
12:53 AM 25.0 °F 16.3 °F 5.0 °F 43% 30.44 in 10.0 mi SSW 8.1 mph - N/A   Clear
1:53 AM 23.0 °F 13.1 °F 3.9 °F 44% 30.47 in 10.0 mi SSW 9.2 mph - N/A   Clear
2:53 AM 27.0 °F 18.7 °F 6.1 °F 41% 30.47 in 10.0 mi SW 8.1 mph - N/A   Clear
3:53 AM 27.0 °F 21.6 °F 5.0 °F 39% 30.48 in 10.0 mi SSW 4.6 mph - N/A   Clear
4:53 AM 21.9 °F 12.5 °F 5.0 °F 48% 30.51 in 10.0 mi SSW 8.1 mph - N/A   Clear
5:53 AM 21.9 °F 11.0 °F 5.0 °F 48% 30.56 in 10.0 mi SSW 10.4 mph - N/A   Clear
6:53 AM 19.0 °F 8.2 °F 3.9 °F 52% 30.59 in 10.0 mi SSW 9.2 mph - N/A   Clear
7:53 AM 19.9 °F - 5.0 °F 52% 30.61 in 10.0 mi Calm Calm - N/A   Clear
8:53 AM 30.0 °F - 7.0 °F 38% 30.63 in 10.0 mi Calm Calm - N/A   Clear
10:53 AM 48.9 °F - 10.0 °F 21% 30.55 in 10.0 mi East 8.1 mph - N/A   Clear
11:53 AM 59.0 °F - 12.0 °F 16% 30.51 in 10.0 mi South 12.7 mph 20.7 mph N/A   Clear
12:53 PM 62.1 °F - 10.9 °F 13% 30.45 in 10.0 mi SSE 15.0 mph 21.9 mph N/A   Clear
1:53 PM 64.0 °F - 12.0 °F 13% 30.41 in 10.0 mi South 10.4 mph 18.4 mph N/A   Clear
2:53 PM 66.0 °F - 10.9 °F 12% 30.35 in 10.0 mi SSE 13.8 mph 23.0 mph N/A   Clear
3:53 PM 66.0 °F - 10.9 °F 12% 30.33 in 10.0 mi SSE 15.0 mph 21.9 mph N/A   Clear
4:53 PM 64.0 °F - 12.0 °F 13% 30.34 in 10.0 mi SSE 12.7 mph - N/A   Clear
5:53 PM 57.0 °F - 12.9 °F 18% 30.34 in 10.0 mi SE 11.5 mph - N/A   Clear
6:53 PM 52.0 °F - 12.9 °F 21% 30.35 in 10.0 mi SE 15.0 mph - N/A   Clear
7:53 PM 50.0 °F - 12.9 °F 23% 30.35 in 10.0 mi SSE 13.8 mph - N/A   Clear
8:53 PM 50.0 °F - 15.1 °F 25% 30.32 in 10.0 mi South 9.2 mph - N/A   Clear
9:53 PM 48.9 °F - 16.0 °F 27% 30.29 in 10.0 mi SSW 9.2 mph - N/A   Clear
10:53 PM 46.9 °F - 16.0 °F 29% 30.27 in 10.0 mi Calm Calm - N/A   Clear
11:53 PM 37.0 °F - 16.0 °F 42% 30.24 in 10.0 mi Calm Calm - N/A   Clear